ITASAT

Last updated on Sun Jun 21 2026 00:03:20 GMT+0000 (Coordinated Universal Time)

1 43786U 18099AE 26171.11764083 .00005183 00000+0 24987-3 0 9991 2 43786 97.4025 222.5709 0011788 349.8108 10.2885 15.19087166413356
UTC large
Height (km)
Speed (km/s)
/
Latitude / Longitude
Inclination (degrees)
Orbital Period (minutes)
Azimuth
Elevation
Range (km)
Doppler Factor

Next 0 passes for location: London (51.5072 / 0.1276)

No passes found over London.
ITASAT